This is the latest recevied weather packets stored in our database for station/object YB3RDW-13. If no packets are shown the sender has not sent any weather packets the latest 10 day(s).
| Time | Temp. | Humidity | Pressure | Rain* | Wind** | Luminosity | Snow |
|---|---|---|---|---|---|---|---|
| 1777962118 | 33.33° C | 62% | 1010 hPa | 0 mm | - | 277 W/m² | - |
| 1777961817 | 33.33° C | 63% | 1010 hPa | 0 mm | - | 316 W/m² | - |
| 1777961517 | 32.78° C | 63% | 1010 hPa | 0 mm | - | 552 W/m² | - |
| 1777961218 | 33.33° C | 63% | 1010 hPa | 0 mm | - | 591 W/m² | - |
| 1777960917 | 32.78° C | 63% | 1010 hPa | 0 mm | - | 583 W/m² | - |
| 1777960617 | 32.78° C | 63% | 1010 hPa | 0 mm | - | 615 W/m² | - |
| 1777960317 | 33.33° C | 61% | 1010 hPa | 0 mm | - | 555 W/m² | - |
| 1777960018 | 33.33° C | 64% | 1010 hPa | 0 mm | - | 498 W/m² | - |
| 1777959717 | 33.33° C | 65% | 1010 hPa | 0 mm | - | 596 W/m² | - |
| 1777959418 | 33.33° C | 65% | 1010 hPa | 0 mm | - | 511 W/m² | - |
| 1777959117 | 33.33° C | 63% | 1010 hPa | 0 mm | - | 552 W/m² | - |
| 1777958818 | 32.78° C | 64% | 1011 hPa | 0 mm | - | 478 W/m² | - |
| 1777958517 | 32.78° C | 65% | 1011 hPa | 0 mm | - | 586 W/m² | - |
| 1777958217 | 32.78° C | 63% | 1011 hPa | 0 mm | - | 659 W/m² | - |
| 1777957918 | 33.33° C | 65% | 1011 hPa | 0 mm | - | 657 W/m² | - |
| 1777957617 | 32.78° C | 64% | 1011 hPa | 0 mm | - | 674 W/m² | - |
| 1777957317 | 32.78° C | 64% | 1011 hPa | 0 mm | - | 686 W/m² | - |
| 1777957017 | 33.33° C | 64% | 1011 hPa | 0 mm | - | 263 W/m² | - |
| 1777956718 | 33.89° C | 63% | 1012 hPa | 0 mm | - | 670 W/m² | - |
| 1777956418 | 33.33° C | 63% | 1012 hPa | 0 mm | - | 724 W/m² | - |
| 1777956118 | 33.33° C | 63% | 1012 hPa | 0 mm | - | 712 W/m² | - |
| 1777955817 | 33.33° C | 62% | 1012 hPa | 0 mm | - | 709 W/m² | - |
| 1777955518 | 32.78° C | 65% | 1012 hPa | 0 mm | - | 720 W/m² | - |
| 1777955217 | 32.22° C | 65% | 1012 hPa | 0 mm | - | 688 W/m² | - |
| 1777954917 | 32.22° C | 66% | 1012 hPa | 0 mm | - | 673 W/m² | - |
* Rain latest hour (hover to see other rain measurements)
** Current wind speed in m/s (hover to see current wind gust speed)